Location: Gad�tanya
(48.0500°N, 20.8500°E)
Time: 10:16:15
(UTC+00:00)

ERS-1 Rocket - Pass Details

Date: 05 July 2020
Orbit: 752 x 758 km, 98.5° (Epoch: 15 August)

Event Time Altitude Azimuth Distance (km) Brightness Sun altitude
Exits shadow 19:16:53 - 135° (SE) 2,545 5.0 -5.8°
Reaches altitude 10° 19:17:35 10° 132° (SE) 2,286 4.8 -5.8°
Maximum altitude 19:22:10 37° 66° (ENE) 1,172 3.8 -6.4°
Drops below altitude 10° 19:26:47 10° 0° (N) 2,299 6.2 -6.9°
Sets 19:29:14 0° 353° (N) 3,229 7.2 -7.2°
